TimeMST,TemperatureF,Dew PointF,Humidity,Sea Level PressureIn,VisibilityMPH,Wind Direction,Wind SpeedMPH,Gust SpeedMPH,PrecipitationIn,Events,Conditions,WindDirDegrees,DateUTC
12:53 AM,27.0,12.0,53,29.95,10.0,Calm,Calm,-,N/A,,Partly Cloudy,0,2013-01-31 07:53:00
1:53 AM,25.0,12.9,60,29.96,10.0,SW,4.6,-,N/A,,Partly Cloudy,220,2013-01-31 08:53:00
2:53 AM,21.9,12.9,68,29.99,10.0,Calm,Calm,-,N/A,,Scattered Clouds,0,2013-01-31 09:53:00
3:53 AM,26.1,10.9,53,29.98,10.0,SE,4.6,-,N/A,,Scattered Clouds,130,2013-01-31 10:53:00
4:53 AM,25.0,14.0,63,30.00,10.0,NNE,3.5,-,N/A,,Mostly Cloudy,20,2013-01-31 11:53:00
5:53 AM,33.1,14.0,46,29.98,10.0,WNW,5.8,-,N/A,,Partly Cloudy,300,2013-01-31 12:53:00
6:53 AM,33.1,12.9,43,30.00,10.0,WNW,8.1,-,N/A,,Scattered Clouds,300,2013-01-31 13:53:00
7:53 AM,28.9,14.0,54,30.06,10.0,Variable,4.6,-,N/A,,Scattered Clouds,0,2013-01-31 14:53:00
8:53 AM,35.1,15.1,44,30.11,10.0,Variable,3.5,-,N/A,,Scattered Clouds,0,2013-01-31 15:53:00
9:53 AM,37.0,15.1,41,30.16,10.0,North,8.1,-,N/A,,Scattered Clouds,10,2013-01-31 16:53:00
10:53 AM,39.0,17.1,41,30.16,10.0,North,13.8,19.6,N/A,,Scattered Clouds,360,2013-01-31 17:53:00
11:53 AM,42.1,16.0,35,30.15,10.0,NNW,12.7,-,N/A,,Scattered Clouds,340,2013-01-31 18:53:00
12:53 PM,44.1,14.0,30,30.10,10.0,NW,19.6,23.0,N/A,,Scattered Clouds,320,2013-01-31 19:53:00
1:53 PM,46.0,12.0,25,30.08,10.0,NNW,21.9,32.2,N/A,,Scattered Clouds,330,2013-01-31 20:53:00
2:53 PM,45.0,12.0,26,30.09,10.0,NNW,18.4,26.5,N/A,,Scattered Clouds,340,2013-01-31 21:53:00
3:53 PM,45.0,12.9,27,30.09,10.0,North,10.4,-,N/A,,Scattered Clouds,350,2013-01-31 22:53:00
4:53 PM,42.1,16.0,35,30.12,10.0,NE,9.2,-,N/A,,Scattered Clouds,40,2013-01-31 23:53:00
5:53 PM,37.0,18.0,46,30.12,10.0,SSE,9.2,-,N/A,,Scattered Clouds,150,2013-02-01 00:53:00
6:53 PM,35.1,17.1,48,30.14,10.0,SSE,8.1,-,N/A,,Partly Cloudy,160,2013-02-01 01:53:00
7:53 PM,34.0,19.9,56,30.17,10.0,SSE,10.4,-,N/A,,Partly Cloudy,150,2013-02-01 02:53:00
8:53 PM,33.1,19.9,59,30.15,10.0,SSE,10.4,-,N/A,,Partly Cloudy,150,2013-02-01 03:53:00
9:53 PM,30.9,19.0,61,30.15,10.0,South,6.9,-,N/A,,Partly Cloudy,170,2013-02-01 04:53:00
10:53 PM,27.0,19.0,72,30.17,10.0,SSW,3.5,-,N/A,,Partly Cloudy,200,2013-02-01 05:53:00
11:53 PM,27.0,18.0,69,30.14,10.0,Calm,Calm,-,N/A,,Partly Cloudy,0,2013-02-01 06:53:00